Regional Weather Roundup
Issued by NWS Goodland, KS

Home | Current Version | Previous Version | Graphics & Text | Print | Product List | Glossary On
Versions: 1 2 3 4 5 6 7 8 9 10 11 12 13 14 15 16 17 18 19 20 21 22 23 24 25 26 27 28 29 30 31 32 33 34 35 36 37 38 39 40 41 42 43 44 45 46 47 48 49 50
000
ASUS43 KGLD 250408
RWRGLD

GOODLAND FORECAST AREA HOURLY WEATHER ROUNDUP
NATIONAL WEATHER SERVICE GOODLAND KS
1000 PM MDT SUN JUL 24 2016

...OFFICIAL OBSERVATIONS...

CITY           SKY/WX    TMP DP  RH WIND       PRES   REMARKS
GOODLAND KS    TSTM      65  63  93 NW17      30.29R
HILL CITY KS   CLOUDY    76  61  59 NE9       30.12R
IMPERIAL NEB   CLOUDY    71  58  63 SW14G28   30.15F
MCCOOK NEB     CLOUDY    73  62  68 CALM      30.15R
AKRON CO       CLOUDY    63  54  72 SE21G32   30.22R
BURLINGTON CO  RAIN      64  60  87 NE35      30.23F
LIMON CO       CLOUDY    61  57  87 E21G29    30.30R
$$

...UNOFFICIAL OBSERVATIONS...

CITY           SKY/WX    TMP DP  RH WIND       PRES   REMARKS
COLBY KS       PTCLDY    75  57  53 N13       30.18F
LENORA KS        N/A     73  32  22 MISG        N/A
NORTON KS      CLEAR     73  52  46 NE5       30.12R
SHARON SPRINGS   N/A     66  63  91 N21G35      N/A
KIT CARSON CO    N/A     65  60  83 MISG        N/A
YUMA CO          N/A     64  56  77 SE20        N/A
$$



USA.gov is the U.S. government's official web portal to all federal, state and local government web resources and services.